Weather History for KLRU - February, 2013

Change the Weather History Date:

Saturday, February 9, 2013

  Actual Average Record
Temperature  
Mean Temperature 44 °F -  
Max Temperature 55 °F 54 °F 75 °F (2015)
Min Temperature 33 °F 32 °F 38 °F (2014)
Degree Days  
Heating Degree Days 20    
Moisture  
Dew Point 15 °F    
Average Humidity 31    
Maximum Humidity 53    
Minimum Humidity 19    
Precipitation  
Precipitation 0.00 in - - ()
Sea Level Pressure  
Sea Level Pressure 29.84 in    
Wind  
Wind Speed 15 mph (WSW)    
Max Wind Speed 37 mph    
Max Gust Speed 50 mph    
Visibility 10 miles    
Events      
Averages and records for this station are not official NWS values.
T = Trace of Precipitation, MM = Missing Value Source: NWS Daily Summary

Daily Weather History Graph

Daily Weather History Graph

Search for Another Location

Airport or City:

Trip Planner

Search our weather history database for the weather conditions in past years. The results will help you decide how hot, cold, wet, or windy it might be!

Date:

Astronomy

Feb. 09, 2013 Rise Set
Actual Time 6:55 AM MST 5:48 PM MST
Civil Twilight 6:30 AM MST 6:14 PM MST
Nautical Twilight 6:01 AM MST 6:43 PM MST
Astronomical Twilight 5:32 AM MST 7:11 PM MST
Moon 6:09 AM MST (2/9) 5:32 PM MST (2/9)
Length of Visible Light 11h 44m
Length of Day
10h 53m
Waning Crescent, 0% of the Moon is Illuminated
Feb 9
Waning Crescent
Feb 10
New
Feb 17
First Quarter
Feb 25
Full
Mar 4
Last Quarter

Hourly Weather History & Observations

Time (MST) Temp. Windchill Dew Point Humidity Pressure Visibility Wind Dir Wind Speed Gust Speed Precip Events Conditions
12:15 AM 52.9 °F - 14.9 °F 22% 29.86 in 10.0 mi WSW 12.7 mph - N/A   Clear
12:35 AM 51.3 °F - 14.9 °F 24% 29.86 in 10.0 mi WSW 10.4 mph - N/A   Clear
12:55 AM 50.0 °F - 15.4 °F 25% 29.85 in 10.0 mi WSW 8.1 mph - N/A   Clear
1:15 AM 48.0 °F - 15.3 °F 27% 29.84 in 10.0 mi WSW 8.1 mph - N/A   Clear
1:35 AM 48.2 °F - 15.4 °F 27% 29.84 in 10.0 mi WSW 10.4 mph - N/A   Clear
1:55 AM 49.1 °F - 14.7 °F 25% 29.83 in 10.0 mi SW 12.7 mph - N/A   Clear
2:15 AM 51.8 °F - 11.1 °F 20% 29.82 in 10.0 mi SW 9.2 mph - N/A   Clear
2:35 AM 51.3 °F - 10.0 °F 19% 29.81 in 10.0 mi SSW 9.2 mph - N/A   Clear
2:55 AM 48.0 °F - 11.7 °F 23% 29.81 in 10.0 mi SSE 8.1 mph - N/A   Clear
3:15 AM 45.0 °F 42.6 °F 12.2 °F 27% 29.81 in 10.0 mi South 4.6 mph - N/A   Clear
3:35 AM 44.1 °F 41.5 °F 11.1 °F 26% 29.80 in 10.0 mi South 4.6 mph - N/A   Clear
3:55 AM 44.1 °F 40.1 °F 11.1 °F 26% 29.80 in 10.0 mi South 6.9 mph - N/A   Clear
4:15 AM 44.8 °F 41.0 °F 11.1 °F 26% 29.79 in 10.0 mi South 6.9 mph - N/A   Clear
4:35 AM 44.6 °F 40.7 °F 10.9 °F 26% 29.79 in 10.0 mi South 6.9 mph - N/A   Clear
4:55 AM 43.5 °F 40.1 °F 11.7 °F 27% 29.78 in 10.0 mi South 5.8 mph - N/A   Clear
5:15 AM 42.4 °F 38.8 °F 12.2 °F 29% 29.78 in 10.0 mi South 5.8 mph - N/A   Clear
5:35 AM 42.1 °F 37.7 °F 12.9 °F 31% 29.78 in 10.0 mi South 6.9 mph - N/A   Clear
5:55 AM 41.5 °F 37.8 °F 12.6 °F 31% 29.78 in 10.0 mi SSW 5.8 mph - N/A   Clear
6:15 AM 41.0 °F 36.4 °F 12.6 °F 31% 29.79 in 10.0 mi SSW 6.9 mph - N/A   Clear
6:35 AM 38.5 °F 34.1 °F 11.5 °F 33% 29.79 in 10.0 mi SW 5.8 mph - N/A   Clear
6:55 AM 40.8 °F 36.2 °F 13.1 °F 32% 29.78 in 10.0 mi SSW 6.9 mph - N/A   Clear
7:15 AM 41.2 °F 36.6 °F 13.6 °F 33% 29.78 in 10.0 mi SSW 6.9 mph - N/A   Clear
7:35 AM 39.7 °F 34.3 °F 13.5 °F 34% 29.79 in 10.0 mi SW 8.1 mph - N/A   Clear
7:55 AM 47.7 °F - 11.1 °F 23% 29.79 in 10.0 mi SW 15.0 mph - N/A   Clear
8:15 AM 49.1 °F - 10.2 °F 21% 29.80 in 10.0 mi SW 17.3 mph 20.7 mph N/A   Clear
8:35 AM 51.3 °F - 12.0 °F 21% 29.80 in 10.0 mi SW 24.2 mph 29.9 mph N/A   Clear
8:55 AM 52.3 °F - 13.6 °F 21% 29.79 in 10.0 mi SW 25.3 mph 34.5 mph N/A   Clear
9:15 AM 52.9 °F - 14.0 °F 21% 29.79 in 10.0 mi WSW 26.5 mph 35.7 mph N/A   Clear
9:35 AM 51.8 °F - 13.1 °F 21% 29.80 in 10.0 mi West 17.3 mph 25.3 mph N/A   Clear
9:55 AM 51.4 °F - 16.5 °F 25% 29.80 in 10.0 mi West 20.7 mph 25.3 mph N/A   Clear
10:15 AM 52.0 °F - 21.0 °F 30% 29.81 in 10.0 mi West 24.2 mph 29.9 mph N/A   Clear
10:35 AM 50.7 °F - 22.3 °F 33% 29.81 in 10.0 mi West 19.6 mph 29.9 mph N/A   Clear
10:55 AM 51.3 °F - 22.5 °F 32% 29.81 in 10.0 mi West 25.3 mph 31.1 mph N/A   Clear
11:15 AM 52.2 °F - 23.7 °F 33% 29.81 in 10.0 mi WSW 17.3 mph 31.1 mph N/A   Clear
11:35 AM 54.3 °F - 23.7 °F 31% 29.80 in 10.0 mi West 21.9 mph 27.6 mph N/A   Clear
11:55 AM 54.5 °F - 22.8 °F 29% 29.79 in 10.0 mi WSW 31.1 mph 38.0 mph N/A   Scattered Clouds
12:35 PM 55.4 °F - 21.6 °F 27% 29.78 in 7.0 mi West 32.2 mph 42.6 mph N/A   Scattered Clouds
12:55 PM 54.1 °F - 19.9 °F 26% 29.78 in 5.0 mi WSW 36.8 mph 48.3 mph N/A   Haze
1:15 PM 53.8 °F - 19.9 °F 27% 29.79 in 3.0 mi West 34.5 mph 46.0 mph N/A   Haze
1:35 PM 49.5 °F - 22.8 °F 35% 29.80 in 4.0 mi West 35.7 mph 48.3 mph N/A   Haze
1:55 PM 49.1 °F - 21.9 °F 34% 29.80 in 5.0 mi West 34.5 mph 47.2 mph N/A   Haze
2:15 PM 48.0 °F - 21.4 °F 35% 29.82 in 7.0 mi West 32.2 mph 42.6 mph N/A   Scattered Clouds
2:35 PM 47.7 °F - 20.7 °F 34% 29.82 in 7.0 mi West 34.5 mph 49.5 mph N/A   Clear
2:55 PM 47.1 °F - 20.3 °F 35% 29.83 in 5.0 mi West 32.2 mph 46.0 mph N/A   Haze
3:15 PM 47.1 °F - 20.5 °F 35% 29.84 in 10.0 mi West 35.7 mph 46.0 mph N/A   Clear
3:35 PM 46.6 °F - 18.9 °F 33% 29.85 in 10.0 mi WNW 24.2 mph 40.3 mph N/A   Clear
3:55 PM 46.4 °F 37.0 °F 18.1 °F 32% 29.85 in 10.0 mi West 31.1 mph 40.3 mph N/A   Clear
4:15 PM 45.7 °F 36.0 °F 18.1 °F 33% 29.86 in 10.0 mi West 31.1 mph 40.3 mph N/A   Clear
4:35 PM 45.0 °F 35.4 °F 14.5 °F 29% 29.86 in 10.0 mi West 28.8 mph 44.9 mph N/A   Clear
4:55 PM 44.8 °F 35.3 °F 12.4 °F 27% 29.87 in 10.0 mi West 27.6 mph 42.6 mph N/A   Clear
5:15 PM 44.1 °F 33.8 °F 11.5 °F 27% 29.87 in 10.0 mi West 31.1 mph 39.1 mph N/A   Clear
5:35 PM 43.2 °F 33.4 °F 9.7 °F 26% 29.88 in 10.0 mi West 26.5 mph 41.4 mph N/A   Clear
6:15 PM 41.4 °F 31.6 °F 10.8 °F 29% 29.90 in 10.0 mi West 23.0 mph 31.1 mph N/A   Clear
6:35 PM 40.6 °F 30.9 °F 11.3 °F 30% 29.90 in 10.0 mi West 21.9 mph 32.2 mph N/A   Clear
6:55 PM 40.1 °F 30.5 °F 10.8 °F 30% 29.90 in 10.0 mi West 20.7 mph 28.8 mph N/A   Clear
7:15 PM 39.7 °F 30.0 °F 10.4 °F 30% 29.91 in 10.0 mi West 20.7 mph 31.1 mph N/A   Clear
7:35 PM 39.2 °F 29.6 °F 10.8 °F 31% 29.92 in 10.0 mi West 19.6 mph 28.8 mph N/A   Clear
7:55 PM 38.5 °F 29.6 °F 11.3 °F 33% 29.93 in 10.0 mi West 16.1 mph 24.2 mph N/A   Clear
8:15 PM 38.1 °F 28.1 °F 12.7 °F 35% 29.93 in 10.0 mi West 19.6 mph 25.3 mph N/A   Clear
8:35 PM 37.9 °F 28.2 °F 14.4 °F 38% 29.94 in 10.0 mi West 18.4 mph 26.5 mph N/A   Clear
8:55 PM 37.4 °F 27.8 °F 16.2 °F 42% 29.95 in 10.0 mi West 17.3 mph 20.7 mph N/A   Clear
9:15 PM 36.9 °F 27.5 °F 16.7 °F 44% 29.95 in 10.0 mi West 16.1 mph 21.9 mph N/A   Clear
9:35 PM 36.5 °F 27.8 °F 16.7 °F 45% 29.95 in 10.0 mi West 13.8 mph - N/A   Clear
9:55 PM 36.1 °F 27.7 °F 16.5 °F 45% 29.95 in 10.0 mi West 12.7 mph - N/A   Clear
10:15 PM 36.0 °F 26.3 °F 16.5 °F 45% 29.96 in 10.0 mi West 16.1 mph 20.7 mph N/A   Clear
10:35 PM 35.6 °F 25.2 °F 16.7 °F 46% 29.95 in 10.0 mi West 18.4 mph 23.0 mph N/A   Clear
10:55 PM 35.4 °F 25.3 °F 16.7 °F 47% 29.94 in 10.0 mi West 17.3 mph 23.0 mph N/A   Clear
11:15 PM 34.7 °F 25.1 °F 17.2 °F 49% 29.95 in 10.0 mi West 15.0 mph - N/A   Clear
11:35 PM 34.3 °F 24.6 °F 17.6 °F 50% 29.95 in 10.0 mi West 15.0 mph - N/A   Clear
11:55 PM 33.6 °F 26.2 °F 18.0 °F 53% 29.96 in 10.0 mi WNW 9.2 mph - N/A   Clear